Home > Weather > Overland Park > Past weeks

Flag for U.S.A. Weather for the Past 2 Weeks in Overland Park, Kansas, U.S.A.

Now
41 °F

Passing clouds.


Feels Like: 38 °F
Forecast: 22 / 44 °F
Wind: 5 mph from South

Location: Johnson County Executive Airport

Current Time: Feb 5, 2016 at 4:16:20 PM

Latest Report: Feb 5, 2016 at 2:53 PM


Visibility: 10 mi

Pressure: 30.34 "Hg

Humidity: 45%

Dew point: 21 °F

Location of Overland ParkLocation

Historic Weather in Overland Park — Graph

°F

Overland Park Temperature Yesterday

Maximum temperature yesterday: 43 °F (at 3:53 PM)
Minimum temperature yesterday: 18 °F (at 3:53 AM)
Average temperature yesterday: 29 °F

High & Low Weather Summary for the Past Weeks

 TemperatureHumidityPressure
High66 °F (Jan 29, 3:53 PM)96% (Jan 23, 6:53 AM)30.45 "Hg (Jan 23, 6:53 AM)
Low17 °F (Jan 22, 4:53 AM)29% (Feb 4, 3:53 PM)29.35 "Hg (Feb 2, 1:53 PM)
Average35 °F70%30.00 "Hg
* Reported Jan 21 2:53 PM — Feb 5 2:53 PM, Overland Park, Weather by CustomWeather, © 2016

Note: Actual official high and low records may vary slightly from our data, if they occured in-between our weather recording intervals... More about our weather records

Advertising

Overland Park Weather History for the Previous 24 Hours

 ConditionsComfort  
Time TempWeatherWind HumidityBarometerVisibility
2:53 PM
Fri, Feb 5
41 °FPassing clouds.5 mph45%30.34 "Hg10 mi
1:53 PM40 °FSunny.No wind47%30.34 "Hg10 mi
12:53 PM38 °FSunny.7 mph53%30.38 "Hg10 mi
11:53 AM33 °FSunny.5 mph61%30.42 "Hg10 mi
10:53 AM30 °FSunny.8 mph69%30.45 "Hg10 mi
9:53 AM28 °FSunny.8 mph75%30.45 "Hg10 mi
8:53 AM26 °FSunny.6 mph77%30.45 "Hg9 mi
7:53 AM24 °FSunny.3 mph84%30.44 "Hg8 mi
6:53 AM23 °FClear.No wind85%30.43 "Hg8 mi
5:53 AM24 °FClear.3 mph81%30.41 "Hg10 mi
4:53 AM24 °FClear.5 mph81%30.39 "Hg10 mi
3:53 AM24 °FClear.No wind81%30.38 "Hg10 mi
2:53 AM23 °FClear.5 mph81%30.39 "Hg10 mi
1:53 AM25 °FClear.No wind75%30.39 "Hg10 mi
12:53 AM25 °FClear.7 mph75%30.37 "Hg10 mi
11:53 PM
Thu, Feb 4
27 °FClear.9 mph72%30.38 "Hg10 mi
10:53 PM29 °FClear.7 mph64%30.37 "Hg10 mi
9:53 PM32 °FClear.9 mph56%30.36 "Hg10 mi
8:53 PM32 °FClear.8 mph52%30.35 "Hg10 mi
7:53 PM34 °FClear.6 mph48%30.34 "Hg10 mi
6:53 PM35 °FClear.3 mph44%30.32 "Hg10 mi
5:53 PM39 °FClear.7 mph36%30.30 "Hg10 mi
4:53 PM42 °FSunny.10 mph30%30.28 "Hg10 mi
Weather by CustomWeather, © 2016

See weather overviewHow to use our weather pages